Theta_e
314 305 303 302 303 303 303 304 306 306 307 308 309 307 303 304 304 311 311 313 316 312 308 309 307 307 309 311 316 320 322 322 322 321 322 323 323 324 324 325 326 327 329 331 332 333 334 336 337 339 339 339 340 340 341 340 336 336 334 336 334 336 337 335 331 330 328 327 326 327 326 326 326 326 327 326 327 327 327 324 322 322 322 323 322 322
311 304 305 307 307 307 307 308 309 311 311 309 308 304 303 306 302 308 310 313 314 310 305 309 308 306 309 312 314 319 320 319 320 321 322 322 323 323 325 325 326 328 330 332 332 333 335 336 337 337 337 338 337 338 340 339 338 338 336 335 334 335 335 333 332 330 329 329 327 327 326 325 325 324 323 323 326 327 324 324 323 323 322 322 323 323
305 302 306 309 311 314 311 312 311 308 307 309 307 306 301 306 308 310 311 313 313 311 305 308 308 308 310 311 313 316 319 321 323 323 324 324 324 324 324 326 326 327 329 330 331 332 334 335 336 336 336 336 337 338 339 339 338 336 335 335 335 334 333 333 334 332 330 330 331 330 327 325 324 326 328 324 326 326 324 325 324 323 323 321 321 321
300 304 308 311 312 308 310 310 309 308 307 303 305 301 303 306 303 300 308 310 312 310 306 308 306 308 314 313 313 316 318 324 325 325 326 327 325 325 325 326 325 326 328 328 330 332 334 335 336 336 335 336 337 337 337 337 335 335 335 335 335 334 333 333 333 332 332 332 333 332 332 330 328 326 329 329 328 326 325 324 324 323 323 321 321 320
302 306 311 310 308 307 306 308 307 305 302 304 302 304 304 304 306 306 306 310 312 312 312 309 306 306 309 309 310 315 319 320 323 323 324 326 327 327 328 327 328 327 328 327 328 332 334 335 335 335 335 336 337 337 336 337 336 334 334 334 335 333 333 333 334 333 333 334 333 333 333 332 331 329 327 325 323 325 325 324 324 323 322 321 318 321
305 309 311 309 308 307 306 305 306 305 302 303 305 307 307 307 306 307 309 307 305 303 309 306 298 299 307 309 309 314 314 319 322 322 322 323 324 326 325 326 327 327 330 330 329 331 333 334 336 336 336 336 336 336 337 338 337 337 334 334 334 333 332 332 334 334 334 333 329 328 326 324 324 322 322 320 321 322 322 322 324 324 321 320 320 320
307 309 309 307 307 307 305 305 306 308 301 303 305 310 309 308 307 306 306 306 299 297 305 310 298 295 305 306 309 313 316 314 320 320 321 323 324 325 325 326 327 327 328 331 331 331 332 334 335 336 336 336 336 337 338 338 338 337 335 334 334 333 333 333 333 334 333 331 328 328 325 324 324 321 322 324 324 323 321 325 325 324 324 319 320 320
309 308 306 307 305 305 305 302 306 307 303 304 310 311 311 309 307 306 307 305 303 308 308 308 305 297 298 306 310 314 314 314 316 318 320 322 324 324 326 327 328 328 329 329 331 332 334 334 335 335 336 338 337 339 338 338 338 338 336 335 334 334 333 332 332 332 332 330 329 329 326 324 322 321 322 324 326 327 326 325 325 325 324 322 319 320
310 306 308 304 306 304 303 308 311 310 306 307 312 313 311 310 308 308 307 305 307 304 298 302 307 298 297 305 312 312 310 311 313 316 320 321 322 324 326 327 328 329 329 330 331 332 334 334 334 333 334 335 337 338 338 338 337 338 337 335 335 334 334 332 333 332 330 331 330 329 327 325 323 323 323 324 325 325 327 325 326 326 325 323 321 319
311 312 312 311 306 305 311 311 312 312 307 312 315 315 314 313 312 311 305 305 306 300 298 304 306 297 298 307 309 312 311 310 313 315 317 320 322 324 325 326 328 329 330 330 332 333 335 336 335 337 337 338 337 338 340 339 338 337 337 335 334 334 333 333 333 331 331 331 331 329 328 325 323 324 325 324 323 324 326 325 326 327 325 324 323 321
312 316 316 313 311 311 313 313 313 313 313 315 313 311 310 310 309 309 310 309 302 292 298 304 306 304 296 304 307 308 306 311 312 314 318 319 321 322 324 327 327 328 329 329 330 333 335 337 337 337 337 338 338 338 339 338 337 337 336 335 334 334 334 333 333 331 331 331 330 329 327 326 324 323 324 322 324 323 326 325 325 326 326 325 324 323
311 312 312 313 316 315 314 310 314 314 314 313 310 307 306 304 306 305 305 306 294 291 300 303 307 306 295 301 309 312 313 314 315 313 315 317 319 322 324 325 327 328 328 328 330 331 334 337 337 337 336 337 336 336 337 336 336 337 336 335 334 334 334 334 333 332 331 330 330 330 329 326 325 324 322 322 321 321 321 324 324 326 325 326 325 325
304 307 310 311 315 313 310 308 308 310 311 309 307 306 300 295 298 292 297 291 295 293 300 306 306 302 301 305 310 311 313 316 317 317 317 317 318 323 326 326 327 329 329 328 330 331 333 335 335 335 335 335 334 335 335 335 337 337 336 336 334 334 334 334 333 332 332 331 330 329 328 328 327 325 323 321 321 323 322 322 324 326 325 325 325 324
302 308 308 309 312 313 311 303 301 301 305 305 302 301 297 290 289 287 291 295 296 300 304 305 306 299 303 306 313 312 315 317 318 320 320 319 321 323 326 328 328 329 329 329 330 331 333 334 333 334 335 334 334 335 335 335 337 338 336 336 334 334 334 335 334 333 332 332 331 331 329 327 326 326 326 324 322 323 323 323 325 324 325 325 326 326
293 297 302 306 304 312 311 309 304 303 305 304 307 304 297 296 293 287 291 288 290 297 302 306 300 295 297 302 314 315 316 318 319 320 322 322 323 326 326 327 327 328 329 330 330 331 332 334 335 333 334 335 333 335 335 336 337 337 336 335 335 335 335 335 334 333 332 331 331 331 329 328 328 326 326 325 325 325 323 324 325 325 325 326 326 324
300 300 304 311 309 312 307 310 310 308 308 309 310 308 302 298 303 295 297 296 296 294 296 300 296 302 302 312 314 317 317 317 319 319 321 321 323 324 324 325 325 327 328 329 330 331 334 336 337 336 336 336 335 337 337 335 336 337 336 336 336 336 336 335 334 333 333 332 332 332 331 329 328 328 327 327 326 326 326 325 323 326 326 327 326 327
301 297 306 307 311 309 311 312 310 311 296 305 307 299 302 307 304 298 300 303 302 297 293 298 301 305 311 310 313 314 315 315 317 318 318 319 321 323 322 323 324 325 327 328 328 330 333 335 337 337 338 337 337 336 337 337 337 338 337 336 336 336 336 335 335 334 333 333 332 332 331 330 328 328 327 326 328 327 327 328 326 325 325 328 328 328
300 300 306 306 303 311 314 313 312 312 311 307 300 303 309 309 306 301 293 294 296 291 291 301 298 300 300 295 312 312 312 313 315 317 317 319 319 320 321 323 324 325 326 327 329 330 332 334 336 336 338 338 339 338 338 338 339 338 338 337 335 336 335 335 334 334 333 333 332 332 332 331 329 328 327 327 327 328 327 328 328 328 327 327 328 329
308 297 304 308 309 310 313 313 310 313 314 309 306 312 303 296 297 302 297 290 289 288 292 299 301 303 302 300 308 308 312 312 314 315 317 317 318 319 320 322 325 326 327 327 327 328 330 333 335 337 337 337 339 340 338 337 338 336 338 336 337 336 337 336 335 334 334 333 332 331 332 331 330 329 328 327 327 328 327 325 326 327 327 328 329 330
309 299 300 309 308 310 312 310 301 307 312 312 313 309 310 305 302 300 301 300 300 290 291 294 298 296 307 308 311 310 313 315 315 316 315 317 319 319 320 321 322 325 327 326 327 328 330 333 335 336 338 335 336 337 337 337 337 336 337 337 337 337 337 337 335 335 334 332 333 331 332 332 330 330 328 328 327 327 326 325 325 325 328 328 329 329
307 309 295 304 310 309 305 307 307 307 305 307 307 306 306 306 306 306 304 301 298 292 293 292 292 300 308 312 311 312 315 316 317 316 318 318 320 321 323 322 323 324 326 327 327 328 329 333 334 334 337 335 335 336 336 336 336 336 336 336 336 336 336 336 336 335 333 333 332 332 331 331 332 330 329 328 327 327 327 327 327 325 327 327 328 328
303 307 297 303 304 304 305 308 308 308 309 309 308 306 307 304 301 297 293 304 302 299 292 293 292 303 309 314 314 314 316 317 319 319 318 321 321 323 323 325 325 324 326 328 329 330 329 332 334 332 333 334 334 334 333 334 335 334 335 334 335 335 335 335 334 334 333 334 333 333 331 331 332 331 330 329 328 328 327 327 326 327 327 327 327 328
310 308 306 301 303 304 305 307 309 311 310 309 309 307 308 308 306 301 292 296 302 302 304 302 296 300 313 315 315 315 316 318 319 321 320 321 323 323 324 325 327 327 326 326 329 330 331 332 333 332 331 333 333 334 334 335 334 333 334 334 334 333 334 334 334 334 333 332 332 331 330 329 329 330 331 329 329 329 328 328 328 328 327 326 326 327
310 307 303 302 306 307 309 309 309 310 310 308 308 310 308 307 306 304 303 304 299 300 300 298 293 301 313 316 315 315 317 318 320 320 320 321 322 324 324 325 326 326 327 328 329 329 329 331 333 332 331 331 331 333 334 335 335 334 334 333 333 333 333 333 333 331 331 330 330 330 329 330 330 332 328 328 329 329 330 329 328 328 327 326 327 325
302 307 305 299 299 302 304 306 307 308 309 308 308 310 309 308 307 307 307 307 297 302 301 297 290 297 312 315 315 315 316 316 317 319 321 320 322 323 323 324 325 326 326 326 327 328 329 329 328 328 329 330 330 331 334 334 334 334 335 334 333 333 334 334 334 332 330 329 329 331 331 331 331 329 329 329 329 329 330 330 328 328 327 326 326 326
309 307 303 294 292 290 290 291 294 300 305 307 310 309 308 308 307 306 298 302 295 300 302 299 299 306 312 314 313 314 314 315 317 318 319 320 321 321 322 323 324 324 324 325 326 326 327 328 328 329 329 329 329 330 331 332 333 333 334 335 335 334 334 334 334 333 332 330 329 329 329 329 328 326 326 326 327 327 329 330 329 328 328 326 325 327
311 311 310 306 302 297 300 304 308 307 307 305 306 307 307 308 309 307 307 301 296 301 300 304 305 306 307 309 310 311 313 313 314 316 317 317 320 321 322 322 322 323 323 324 324 325 326 327 328 329 331 331 331 333 333 333 332 332 333 334 334 334 333 333 333 332 331 331 330 328 327 328 328 327 326 327 326 327 328 328 328 328 326 327 326 325
311 305 309 311 308 308 308 307 309 309 306 306 306 306 308 307 308 308 301 298 307 303 295 307 307 304 305 308 309 310 311 312 314 314 316 317 318 319 320 321 320 322 323 324 324 324 324 324 325 327 330 332 332 333 332 332 332 333 334 334 334 334 334 332 333 333 332 332 332 331 329 329 329 329 329 328 328 327 327 327 328 330 328 327 326 325
308 299 307 310 308 309 309 308 309 308 308 307 308 308 308 308 308 308 308 309 308 299 296 307 310 306 306 308 310 310 311 312 312 314 315 317 318 319 320 319 319 320 321 321 322 323 323 323 323 325 327 328 331 332 333 332 332 334 334 334 334 335 335 335 333 333 332 332 331 331 331 330 330 331 330 328 327 327 327 327 327 327 327 327 327 326
313 306 309 308 307 307 308 309 309 307 307 308 308 308 309 309 309 310 310 310 310 308 308 308 306 305 307 308 310 311 313 314 314 315 317 316 316 317 317 318 318 319 319 320 321 322 323 323 323 324 326 327 327 329 330 331 332 333 334 334 334 334 335 335 334 333 333 332 332 333 332 332 332 330 330 329 328 328 328 327 327 326 325 325 326 327
312 302 308 308 306 305 308 309 309 308 307 306 308 309 309 309 308 309 309 310 310 308 307 307 306 303 308 312 312 313 315 316 316 314 314 315 316 316 316 317 317 317 318 319 321 321 322 323 322 322 323 325 325 326 328 330 332 333 333 334 334 334 335 334 334 333 332 331 332 332 333 332 331 331 330 329 329 329 328 327 327 327 326 326 325 325
311 304 309 308 298 301 307 307 308 308 307 306 306 306 307 308 307 307 303 309 309 307 308 308 305 303 309 313 313 313 314 313 313 313 314 314 315 316 315 316 316 316 317 318 319 321 321 321 321 320 320 322 323 324 325 327 330 330 330 332 332 334 335 334 333 331 331 331 332 332 331 331 331 330 330 330 329 329 328 327 327 327 327 326 326 325
310 307 304 303 298 297 305 306 306 307 305 302 303 305 306 307 308 307 309 310 310 311 308 301 305 309 311 313 311 312 313 313 313 313 313 314 315 315 314 314 315 316 316 317 318 319 319 319 320 320 320 320 321 322 324 325 327 328 330 331 333 333 333 332 332 331 331 331 331 331 331 330 329 329 330 330 330 330 329 328 327 327 327 325 326 326
310 309 305 307 297 298 305 305 306 302 293 293 306 309 308 307 308 306 306 307 309 311 309 311 311 312 312 312 311 311 312 312 313 314 315 315 315 315 315 315 315 316 317 317 318 317 319 319 320 320 320 321 322 323 324 325 325 327 330 331 332 331 331 331 331 331 331 331 330 330 330 330 329 329 329 330 329 329 328 328 327 328 328 327 327 326
308 309 303 307 299 299 305 305 298 290 292 305 311 312 311 310 310 307 307 308 309 310 310 310 310 311 312 313 313 313 313 314 316 315 315 315 316 316 315 314 315 315 316 316 317 317 317 319 319 320 320 320 321 323 323 323 324 326 326 328 328 329 329 330 331 331 330 330 330 330 330 330 330 329 329 329 329 329 328 328 328 329 329 328 327 326
307 303 306 301 304 301 298 297 289 290 303 307 308 312 313 312 311 310 307 308 309 310 310 310 311 312 311 312 312 313 314 315 315 315 315 315 315 315 314 313 314 315 315 316 316 317 317 317 318 318 319 321 321 322 323 323 324 325 325 326 326 326 327 327 327 327 328 329 329 330 330 330 329 329 329 329 329 328 328 329 328 328 328 328 328 328
311 309 306 298 305 295 296 297 296 304 303 303 304 307 308 307 308 307 297 304 309 312 312 310 311 312 313 312 313 313 314 314 313 312 314 314 313 314 314 313 314 314 315 316 317 316 318 319 318 320 321 321 321 321 321 323 323 324 323 323 324 325 324 324 324 324 326 327 328 329 330 329 328 329 329 328 328 328 328 328 327 328 328 327 327 327
313 308 308 300 296 303 298 296 295 295 291 301 307 313 315 315 315 314 309 303 311 313 314 313 312 313 314 313 313 314 314 312 307 308 313 313 313 313 314 314 314 315 315 315 316 316 317 319 319 320 320 320 320 321 322 323 323 323 322 322 322 322 322 322 322 323 324 325 326 328 329 329 328 328 327 327 326 326 326 327 328 328 328 326 325 325
312 312 310 302 298 298 296 294 293 291 293 306 308 311 314 316 316 314 309 301 309 312 314 315 313 314 315 315 314 315 312 304 306 308 312 313 312 313 312 313 313 313 314 314 314 314 315 317 318 318 319 319 318 320 322 323 323 321 320 321 321 321 321 321 321 322 323 324 325 325 326 328 328 329 328 327 327 327 326 327 327 327 328 327 326 325
309 307 306 298 296 298 297 295 293 296 295 305 310 312 314 317 315 311 295 294 308 313 315 316 314 315 316 317 317 314 309 304 307 309 312 312 312 312 312 311 311 312 312 313 314 315 316 316 316 316 316 316 317 319 321 322 321 320 319 319 320 320 319 320 321 322 324 324 325 325 323 322 322 323 325 326 326 328 328 327 327 326 326 326 326 325
302 299 299 298 300 298 294 297 299 298 306 310 311 313 315 316 313 299 291 303 312 314 317 317 315 316 316 316 315 310 311 311 312 313 313 313 311 311 312 312 312 312 312 312 313 314 314 314 314 314 314 315 317 318 320 319 319 318 319 319 318 318 319 321 322 322 322 323 323 323 322 321 320 320 321 322 323 324 324 324 324 325 324 324 325 325
303 302 299 299 298 298 301 297 296 301 309 312 313 313 316 310 294 294 307 316 315 315 317 316 315 316 316 316 315 313 313 313 313 313 312 311 311 311 311 311 312 312 312 312 311 312 313 312 312 312 312 313 314 315 317 318 317 317 318 317 316 318 320 320 320 321 321 321 321 321 321 320 321 322 321 322 322 322 321 322 323 322 322 322 321 320
302 297 297 297 300 301 298 295 295 290 299 313 312 311 313 300 302 313 314 316 317 316 316 315 315 314 315 313 314 314 313 312 312 311 311 312 311 310 311 311 311 310 309 310 310 310 310 309 309 309 310 310 312 313 314 316 316 316 316 315 317 319 320 320 320 320 320 319 318 318 318 319 319 319 320 321 321 320 319 320 320 321 321 321 320 319
307 298 298 300 304 296 297 293 293 302 309 313 312 302 310 313 316 317 316 314 318 317 314 314 314 315 315 314 313 312 312 311 312 312 311 311 311 311 311 311 310 310 309 309 310 309 310 309 308 308 309 310 310 311 312 313 313 313 314 314 317 318 319 319 320 319 319 317 316 315 315 316 316 317 317 317 317 317 317 316 317 316 317 318 318 317
308 306 306 299 306 301 298 302 307 309 311 313 315 315 318 320 321 320 319 317 316 315 317 315 314 315 316 315 313 312 311 312 311 312 310 310 310 309 308 309 309 308 308 308 309 310 309 308 308 307 308 309 309 309 309 310 310 311 311 313 314 314 316 318 318 317 317 316 315 315 314 313 314 315 316 315 315 314 314 315 316 315 316 316 315 315
311 312 313 309 303 309 311 312 312 311 312 313 316 318 318 318 320 320 318 315 316 316 316 314 315 314 314 314 311 310 310 310 310 310 310 309 308 308 309 308 308 308 308 308 309 309 309 308 308 308 307 308 309 309 309 309 309 308 310 312 312 312 313 314 314 316 316 316 314 313 313 313 312 312 314 314 313 313 311 312 312 313 313 314 313 313
310 311 311 305 307 302 298 311 311 311 313 315 315 317 317 318 317 318 316 315 315 316 316 315 315 314 313 313 311 310 309 310 309 309 309 308 307 307 307 307 308 308 308 307 309 308 308 308 307 307 307 307 308 308 308 309 308 309 309 310 310 310 311 311 312 312 313 313 313 314 313 312 311 310 311 312 311 312 311 310 310 311 310 311 312 312
305 315 309 307 307 305 304 310 311 314 315 315 315 314 313 314 316 317 317 317 316 315 313 313 314 312 312 311 311 309 309 309 308 308 307 307 307 307 307 307 307 307 308 309 309 309 308 308 307 307 306 306 307 308 308 308 308 309 309 309 310 310 310 309 310 310 311 312 312 312 312 312 310 312 311 310 309 309 309 310 311 309 308 308 308 310
309 312 298 308 305 307 310 311 311 312 312 312 314 316 315 314 313 314 314 313 312 312 312 313 313 312 312 310 310 309 308 308 308 308 306 307 307 307 307 307 308 308 308 307 308 309 307 307 306 307 306 306 307 308 308 308 308 309 309 309 309 310 309 309 307 309 309 309 310 311 311 311 312 312 311 312 312 310 309 308 309 310 310 310 309 308
311 306 309 308 301 300 302 306 310 302 302 310 312 314 314 314 313 312 311 310 310 310 310 310 311 312 311 310 309 308 307 307 308 308 306 307 307 308 308 308 307 307 307 308 308 308 307 308 307 306 306 306 307 307 307 307 308 308 308 308 309 309 308 308 307 308 308 307 306 308 309 309 309 310 309 310 310 312 313 299 296 303 310 309 300 291
307 307 310 305 299 303 310 311 315 315 313 313 314 315 314 313 312 310 309 309 309 310 309 309 308 308 308 309 310 307 306 307 308 309 307 306 307 309 309 309 307 307 306 308 307 307 307 307 307 306 305 306 307 306 306 306 307 307 307 308 308 308 307 307 306 305 305 306 305 304 308 307 307 309 308 308 308 309 309 313 308 287 288 297 298 295
Wind_Speed
4 1 3 4 5 6 3 7 8 12 10 11 6 10 9 9 8 8 9 7 5 8 6 10 8 6 4 3 6 9 10 10 10 11 10 11 11 10 9 9 9 9 9 10 12 13 13 12 11 9 9 9 9 9 9 10 11 11 10 10 9 8 8 7 7 7 7 7 7 6 7 6 5 5 3 3 3 3 0 1 1 0 1 1 2 3
4 2 2 3 1 1 5 9 13 9 10 11 9 9 10 10 10 9 10 7 1 3 4 9 8 5 3 8 6 7 11 13 13 12 12 12 11 10 10 10 10 9 8 10 11 12 12 11 11 9 8 9 10 9 9 11 11 11 12 11 10 8 8 8 8 7 7 7 7 6 6 6 5 5 5 4 3 3 1 2 1 1 1 1 2 2
0 4 1 3 1 3 4 8 8 10 9 7 10 10 12 8 11 9 6 3 1 3 7 7 9 6 11 10 4 6 11 11 12 13 12 11 11 9 9 10 10 9 10 10 11 12 11 12 13 10 9 9 10 11 11 11 12 12 11 10 10 9 9 8 8 8 7 7 7 6 5 6 5 5 4 4 2 2 2 2 2 2 2 2 3 2
4 2 4 3 3 3 6 7 11 10 7 5 6 7 9 14 11 7 6 4 1 3 5 5 7 5 5 5 7 10 13 9 11 12 11 11 10 11 11 10 10 11 10 11 12 12 11 11 10 10 10 9 9 9 10 11 12 10 10 10 10 9 9 8 8 8 8 8 7 7 5 6 5 4 4 3 2 3 2 3 3 2 1 2 4 2
5 6 4 6 6 1 5 6 9 10 6 4 1 6 12 10 5 9 8 6 6 5 3 5 1 5 8 8 9 13 14 13 10 10 10 10 9 9 9 9 10 11 11 11 12 11 11 11 10 11 10 10 10 10 11 11 11 9 12 11 11 9 9 8 8 8 7 7 6 5 4 4 3 3 5 5 5 4 3 3 3 3 2 2 3 2
7 6 2 7 5 1 3 5 4 4 6 3 12 8 11 14 14 12 9 6 3 2 2 6 3 6 9 13 13 9 12 13 11 11 12 11 12 11 10 10 10 10 10 11 12 12 11 10 10 11 11 11 10 11 11 11 12 11 11 12 11 9 9 8 9 9 8 7 8 7 7 7 7 6 6 6 6 5 5 4 1 0 1 2 2 3
6 8 3 5 3 1 2 2 5 3 7 6 6 5 10 11 13 12 11 6 5 4 8 8 5 4 9 10 13 12 12 12 11 11 11 11 11 11 10 10 10 10 10 10 11 11 12 11 11 11 11 11 10 11 10 11 11 12 11 12 12 10 9 9 9 10 8 8 8 9 9 8 7 7 6 5 5 5 4 2 1 1 1 2 2 3
7 8 8 6 5 5 1 3 6 4 5 4 4 6 7 11 11 12 11 8 4 5 6 12 8 1 1 2 2 5 6 8 9 11 12 11 12 12 12 11 11 11 10 10 11 12 12 13 12 12 12 11 11 10 10 10 11 13 13 13 12 10 9 9 9 11 9 9 8 9 9 8 8 8 7 7 6 5 4 3 3 2 2 2 2 2
5 10 10 9 5 5 7 4 10 18 8 6 6 7 7 10 10 11 8 5 6 10 8 9 15 6 2 3 4 3 7 7 8 9 11 13 12 12 12 12 11 11 10 10 10 13 13 13 13 12 12 12 12 11 10 10 10 11 12 13 12 11 10 10 11 11 11 9 9 9 8 8 8 7 6 6 6 6 5 4 3 3 1 2 2 2
3 1 7 7 9 4 2 3 1 5 7 7 7 7 7 7 7 8 9 9 5 1 5 8 5 3 7 6 5 4 2 2 4 7 9 11 12 12 12 12 11 11 10 11 11 12 12 11 12 11 10 11 11 11 10 10 10 11 12 13 13 13 10 10 12 11 12 11 9 9 9 9 8 7 6 6 6 6 5 5 5 4 3 2 3 3
6 3 1 3 2 6 6 9 7 8 10 11 9 9 8 6 5 3 0 4 7 4 6 1 0 1 6 5 6 5 4 6 4 2 4 7 9 11 11 12 11 11 10 10 11 11 11 10 10 11 11 10 10 10 11 10 11 11 12 13 14 14 11 11 12 12 12 11 10 9 10 11 10 9 8 7 6 7 6 6 6 5 4 3 2 3
5 5 4 4 1 4 3 8 7 7 7 7 5 6 7 6 4 4 3 3 1 4 3 3 1 4 2 7 7 8 8 6 4 1 2 4 8 10 11 11 12 11 10 10 10 10 10 10 10 10 10 10 11 10 11 11 11 12 12 12 14 14 13 11 11 12 12 10 10 10 10 10 10 9 8 8 8 9 9 8 6 5 4 4 3 3
5 4 4 4 1 3 2 3 4 4 3 3 5 3 5 5 5 2 3 2 4 7 5 0 3 6 9 8 8 10 8 8 7 4 3 2 3 7 10 11 11 10 11 10 10 10 10 11 11 11 11 11 11 12 12 12 12 12 12 13 14 14 13 11 12 12 12 11 10 10 10 10 9 9 9 9 9 9 8 7 7 6 5 4 4 4
6 7 5 4 5 2 6 4 4 3 3 4 3 4 5 6 3 6 3 2 5 3 1 2 2 4 8 6 10 9 8 9 8 8 7 5 4 5 9 10 10 10 10 10 10 10 11 11 11 11 12 12 12 13 12 12 12 11 11 13 14 14 13 12 12 12 12 12 10 10 10 10 9 9 9 8 8 8 8 7 7 7 6 5 5 4
4 5 6 4 3 5 4 5 6 2 1 4 4 1 1 1 3 8 4 7 5 6 8 8 1 6 3 7 6 9 8 10 10 9 8 7 6 6 8 10 10 11 10 9 10 10 10 10 11 11 12 12 12 13 13 12 12 12 11 12 13 14 14 13 13 12 13 11 11 10 10 10 9 9 8 8 8 8 9 8 9 8 7 6 5 5
9 7 8 3 7 9 8 7 9 8 5 3 4 5 2 4 2 5 7 5 8 9 4 6 5 9 6 5 9 8 10 11 11 12 10 10 9 7 9 9 9 9 9 9 9 10 10 10 11 10 11 11 11 12 12 12 12 12 12 12 13 14 14 13 13 13 12 12 10 11 11 11 11 9 8 8 8 8 8 9 9 8 8 7 6 6
5 4 6 7 6 9 9 10 10 4 2 2 4 1 5 1 2 3 5 8 8 3 7 4 5 11 10 11 10 10 12 14 11 13 12 11 10 8 7 7 7 8 8 8 8 8 10 9 10 10 11 10 10 10 12 12 12 13 12 12 13 14 14 14 14 13 13 12 12 12 12 11 11 11 11 9 10 10 9 9 9 9 9 8 7 6
3 7 7 9 6 9 8 9 7 9 5 2 4 3 1 0 4 4 7 2 3 8 4 3 8 9 5 6 7 9 10 9 13 11 12 11 9 9 7 6 5 5 6 7 6 7 8 9 10 9 9 10 10 10 11 12 11 10 11 12 13 13 14 14 13 13 13 13 13 12 12 12 12 11 12 11 11 10 10 10 9 10 9 9 8 7
8 2 7 3 5 7 8 7 8 9 8 5 4 2 5 3 5 3 1 5 7 6 6 8 10 8 8 8 8 11 11 11 11 11 11 11 9 8 7 7 5 4 3 3 5 5 5 6 6 7 8 8 8 9 8 9 10 10 10 11 11 12 14 14 11 11 11 12 10 10 12 13 12 12 11 11 11 10 11 11 11 11 10 10 10 9
4 0 7 3 2 7 7 5 1 5 6 7 5 6 3 4 3 1 4 4 4 8 6 9 8 8 8 7 8 9 11 12 12 9 12 12 12 10 8 7 5 5 2 2 3 2 2 3 4 5 6 6 7 8 8 8 8 10 10 10 10 10 10 12 13 11 12 13 12 12 11 12 12 13 12 12 11 11 12 12 12 11 11 11 10 10
2 4 3 5 5 5 4 4 3 3 3 5 4 2 3 2 4 3 4 0 3 4 5 6 6 7 8 7 8 8 10 10 11 9 9 11 12 12 12 9 7 6 5 3 3 1 1 2 2 3 4 5 5 5 6 7 8 8 8 9 9 10 10 11 11 11 11 10 12 12 13 12 12 14 12 12 12 12 12 12 12 11 10 11 11 11
1 1 4 4 5 3 5 2 4 4 4 1 1 3 2 4 5 3 6 3 1 5 5 5 8 8 6 5 7 8 8 9 10 10 9 12 13 12 12 13 11 8 7 6 4 3 2 2 1 0 2 2 3 4 5 5 5 6 7 7 8 9 10 10 11 11 11 8 4 7 10 11 11 12 12 13 13 13 13 12 12 12 11 11 11 11
4 3 1 2 5 6 5 1 2 3 4 3 5 3 3 2 4 2 4 4 3 6 7 7 7 7 6 6 6 7 7 8 10 10 10 10 11 11 11 12 13 13 12 10 9 7 6 5 4 2 1 1 2 3 3 4 5 5 6 7 8 9 11 10 10 10 10 9 11 12 11 11 11 11 12 13 12 13 13 13 13 12 12 12 11 11
2 3 4 5 7 7 7 4 3 3 4 6 4 3 1 3 3 3 5 4 4 7 6 6 4 6 5 5 6 6 6 7 8 10 10 10 9 10 11 12 12 13 13 13 11 9 7 6 3 2 1 0 1 2 3 4 4 5 6 7 8 10 10 9 9 10 10 10 10 11 11 11 9 8 11 12 11 13 14 13 12 12 13 13 12 12
3 2 5 4 3 6 7 6 5 4 3 4 4 4 4 2 0 2 3 2 4 3 4 5 6 4 5 5 6 5 6 8 9 10 10 10 9 10 11 10 10 11 11 12 12 12 11 10 10 10 8 6 4 2 1 1 2 4 6 6 7 8 8 8 8 8 8 9 10 10 11 11 9 11 12 11 11 14 13 12 12 11 13 13 13 13
3 4 4 3 1 2 2 2 3 4 4 3 4 4 4 5 2 1 2 4 3 3 2 4 7 8 7 6 7 6 6 7 8 9 9 9 10 10 10 10 10 10 11 12 11 10 10 10 10 10 10 7 6 6 4 1 1 3 3 6 6 6 5 6 7 9 9 9 9 10 11 11 12 13 10 10 11 13 12 11 12 12 12 14 14 14
2 2 4 3 5 3 1 5 4 4 1 2 4 6 5 4 4 4 5 4 3 6 5 6 10 10 8 6 6 7 7 7 8 8 9 10 10 10 10 11 11 10 11 12 12 11 11 12 13 11 10 8 8 5 3 3 2 2 2 2 4 4 5 6 8 9 10 10 11 10 10 11 11 10 11 12 12 11 10 12 11 12 14 13 14 14
1 1 5 5 7 7 6 6 5 3 5 4 4 6 5 5 3 3 6 2 6 5 6 5 12 10 7 6 6 6 6 7 8 9 10 9 10 10 10 10 12 12 12 12 13 14 14 13 12 12 11 11 10 8 6 5 4 4 3 2 3 4 5 5 7 9 10 9 9 9 9 10 12 13 12 11 11 11 11 11 10 10 12 13 15 14
4 1 2 3 7 6 6 7 6 8 7 6 7 7 8 7 6 5 7 7 7 1 6 9 9 10 7 6 6 6 6 7 8 9 9 9 9 10 11 12 12 13 13 14 14 14 13 13 12 12 12 11 12 12 11 9 8 6 4 3 2 3 4 6 7 8 8 9 9 8 8 9 10 10 10 11 12 12 13 12 11 11 12 13 13 12
3 2 2 3 7 6 6 6 4 7 8 9 10 9 9 10 11 11 12 12 14 13 14 13 13 11 7 6 6 5 5 7 7 7 8 10 10 10 11 12 12 13 13 14 14 13 13 13 13 12 12 13 13 13 12 10 9 8 7 5 4 3 3 4 5 6 6 7 7 7 7 8 9 9 10 10 12 12 12 12 12 12 12 14 13 13
4 2 4 5 4 5 5 5 5 6 6 10 9 9 9 10 12 11 11 12 12 14 13 14 13 10 5 5 6 5 5 6 8 9 10 10 10 10 11 12 12 13 13 13 12 12 12 12 12 12 12 13 13 13 11 10 9 8 8 8 6 5 4 3 3 4 5 6 6 7 7 7 8 8 9 10 10 10 11 12 11 11 12 12 12 12
4 2 5 4 2 4 5 5 6 6 8 10 10 10 8 6 7 6 5 3 2 9 10 10 8 7 6 6 6 6 7 7 9 9 9 8 9 9 10 11 11 12 12 12 12 12 12 12 12 13 13 13 13 12 11 11 10 9 9 8 8 7 5 4 4 5 5 5 5 6 6 6 7 8 8 8 9 9 10 10 11 11 11 11 11 9
1 4 4 4 4 3 5 5 6 6 5 5 7 6 6 7 7 8 8 8 8 4 4 1 7 7 8 7 8 8 8 8 8 8 7 8 9 9 10 10 10 11 11 11 11 12 12 11 11 11 11 11 11 11 11 11 10 10 10 10 9 7 5 5 5 5 4 5 5 6 5 6 7 7 7 8 8 8 8 9 10 11 10 10 7 4
2 4 2 2 3 4 6 5 5 5 5 2 4 3 2 3 3 6 7 7 5 3 5 6 8 8 8 6 7 8 8 9 8 8 7 6 7 8 9 9 10 10 10 10 10 11 11 10 10 10 10 10 10 10 10 9 9 9 9 9 9 10 9 9 7 6 6 6 6 5 5 6 6 7 6 6 6 7 8 8 10 10 10 9 8 9
1 3 1 2 2 2 4 4 5 5 1 7 4 5 4 4 7 10 9 8 8 7 7 8 8 8 7 6 8 9 9 9 9 9 9 8 7 7 8 9 9 9 10 10 10 11 10 10 11 11 11 11 11 10 10 10 9 9 9 9 9 9 9 9 9 9 9 8 7 6 6 6 6 6 6 5 5 6 7 8 8 9 8 8 9 10
3 3 3 1 0 2 3 3 5 0 5 5 3 3 4 5 8 10 10 8 7 6 5 7 7 9 8 8 8 8 8 9 9 9 9 8 8 8 8 8 9 9 10 9 10 10 10 10 11 10 10 10 10 9 10 9 9 9 9 9 9 9 9 10 9 9 8 8 8 8 8 7 7 6 6 6 5 6 7 7 7 7 6 6 7 8
4 2 4 2 1 2 2 2 3 8 7 4 4 5 7 5 7 2 2 4 4 3 3 6 5 6 10 10 8 6 5 4 6 7 8 8 7 7 8 8 8 8 8 9 10 10 10 10 9 10 9 9 10 10 10 9 9 8 9 9 9 9 9 9 9 10 10 10 10 9 9 8 7 6 6 6 6 7 7 7 7 6 5 5 5 5
3 5 1 2 2 3 2 3 4 3 4 6 4 5 6 2 2 2 6 6 4 3 3 3 5 4 6 8 9 8 6 3 3 5 6 7 7 6 7 8 8 8 8 8 7 7 7 7 7 7 8 9 10 10 9 9 9 9 9 9 9 9 10 11 11 10 10 10 10 10 9 8 7 6 6 5 6 7 7 7 6 5 3 5 6 6
3 2 3 4 2 3 3 4 4 4 2 3 8 6 4 4 2 2 5 5 2 2 3 2 4 3 2 5 9 8 4 3 4 5 4 5 6 6 6 7 7 8 8 8 8 8 8 6 7 8 8 9 9 10 10 10 10 10 10 11 11 11 11 11 11 11 11 10 9 9 9 10 10 9 8 7 5 5 6 6 5 6 5 4 4 5
4 4 4 3 2 4 3 5 1 4 2 4 7 5 6 4 2 3 3 2 4 5 4 3 4 3 3 4 3 6 5 4 6 6 4 4 5 6 6 7 7 7 8 8 7 6 7 7 8 9 10 10 10 10 10 9 10 11 11 11 11 12 13 12 11 10 10 10 10 10 10 10 10 11 10 11 10 8 7 7 6 6 6 5 4 5
3 1 1 3 3 3 3 2 5 4 4 5 4 5 5 3 2 4 1 6 8 6 5 4 6 4 2 3 5 4 7 8 8 7 5 4 4 6 6 6 7 7 8 8 7 6 7 8 9 10 11 10 10 9 10 10 9 11 11 11 12 13 12 11 11 11 11 11 11 12 12 11 10 10 10 10 9 8 8 7 6 6 6 6 6 7
2 2 0 0 2 2 4 3 2 4 4 3 4 1 3 4 2 2 4 7 8 8 6 5 7 6 6 7 7 8 8 8 7 6 6 5 6 6 6 6 7 7 7 8 8 7 7 9 10 11 11 11 11 10 10 10 10 10 10 11 12 11 10 10 11 11 11 12 12 12 12 12 12 11 10 11 10 9 9 9 9 7 7 6 6 7
1 2 2 3 1 1 2 2 3 2 2 4 6 5 4 3 2 7 8 8 6 7 7 7 6 6 6 8 9 8 7 7 7 6 6 6 6 6 6 7 7 7 7 7 8 9 8 8 10 11 11 10 11 10 10 10 11 10 10 11 11 9 9 10 10 11 11 11 11 11 11 11 12 10 9 10 10 11 11 9 10 10 10 10 10 10
4 2 2 2 2 1 3 1 1 3 7 4 3 0 5 5 7 8 8 8 6 6 7 7 7 6 6 6 6 6 6 6 6 6 6 6 6 6 6 6 7 6 7 8 8 8 8 9 9 10 10 10 10 10 10 11 11 11 11 11 9 9 9 9 9 10 10 10 11 11 11 10 11 10 10 10 9 10 10 10 10 10 10 11 10 10
6 3 5 1 4 3 2 3 4 4 4 3 2 7 8 8 6 6 6 8 8 6 6 6 7 6 5 6 6 6 6 5 6 5 6 6 6 6 7 7 7 7 7 7 7 7 8 9 9 9 10 9 10 10 10 10 11 11 12 10 10 10 10 9 9 10 10 10 10 10 10 10 10 10 10 9 10 10 9 10 9 9 9 9 10 10
2 5 4 7 7 10 10 8 7 7 7 7 6 7 8 7 7 7 8 8 8 7 5 6 6 6 5 4 5 5 6 6 6 6 6 6 6 6 6 6 6 6 6 6 7 7 7 8 9 9 9 9 9 9 9 9 10 11 10 9 10 10 10 10 10 9 10 9 9 10 10 10 10 11 11 10 9 9 9 10 10 9 9 9 9 9
4 1 1 6 9 3 4 6 9 9 9 10 9 9 8 7 7 7 8 8 8 8 7 6 6 5 4 3 5 6 7 6 6 6 6 6 6 6 6 6 6 6 6 6 5 5 6 7 7 8 8 9 8 8 8 9 9 9 8 9 9 10 10 10 9 9 9 9 8 8 9 10 8 8 10 10 9 9 9 9 10 10 10 10 9 9
4 3 6 7 5 2 8 9 9 9 9 9 8 8 9 9 9 9 8 9 9 8 8 7 6 6 4 6 5 6 6 5 6 6 6 6 6 6 6 5 5 5 5 5 4 5 6 7 7 7 8 8 7 8 8 8 8 8 8 8 8 8 8 9 9 9 9 9 8 7 8 7 8 7 7 8 9 9 9 8 8 9 9 9 9 8
6 6 2 1 6 9 11 10 10 10 9 7 8 8 8 8 9 10 10 10 9 9 8 7 5 6 5 6 5 6 6 5 5 5 6 6 6 5 5 5 5 5 5 5 5 5 5 6 7 7 7 7 7 7 7 7 7 7 8 8 7 7 7 7 8 8 8 8 7 7 7 6 6 7 6 6 6 7 8 8 8 7 7 7 7 7
3 5 7 6 7 5 6 9 11 6 6 7 9 9 9 10 10 11 10 10 9 9 8 8 7 6 6 5 4 4 5 5 5 4 5 5 5 6 5 4 5 5 5 4 4 5 5 5 6 6 6 6 6 6 7 6 7 7 7 7 7 7 7 7 6 7 7 7 8 7 6 6 6 6 6 6 5 4 5 2 2 5 6 5 5 4
3 6 3 3 1 5 9 13 2 4 10 9 10 10 10 9 10 10 10 10 9 8 8 8 7 7 6 4 3 4 4 4 5 3 4 5 5 4 4 3 3 3 4 3 4 4 4 4 4 5 6 5 5 5 6 6 6 6 6 6 6 7 7 7 6 6 6 6 7 6 6 5 6 5 5 5 5 5 4 4 5 3 3 4 4 4
Wind_Direction
310 98 140 152 127 113 32 274 233 225 184 174 180 122 143 117 126 134 135 136 159 149 142 115 82 46 58 299 273 192 184 193 194 188 192 195 199 201 198 199 193 190 186 180 183 182 178 170 170 175 173 177 181 191 187 192 189 190 184 180 177 173 172 170 172 176 177 180 185 190 207 218 212 235 219 224 247 250 174 345 311 131 232 231 243 246
294 146 75 33 81 212 216 216 212 184 161 154 133 130 127 142 143 146 138 147 97 238 106 98 98 89 204 245 261 232 196 199 198 195 198 197 200 197 200 199 199 190 185 177 184 185 173 175 170 169 176 180 183 191 189 193 189 188 189 187 178 170 174 180 179 174 182 188 195 197 213 220 217 223 223 224 221 235 170 193 233 259 256 252 238 239
174 74 76 17 272 227 220 176 168 145 137 120 130 135 142 133 125 124 127 137 132 101 107 137 141 182 220 234 247 233 230 211 201 200 196 196 195 195 199 203 195 189 188 185 185 180 177 177 171 168 178 185 189 189 193 194 190 189 192 190 180 180 180 182 179 181 187 193 205 213 214 221 220 218 242 251 242 241 235 180 223 223 260 261 239 216
137 111 55 58 85 137 131 119 122 104 87 76 102 141 143 145 150 136 135 152 119 28 113 158 157 197 235 237 244 231 229 225 211 203 199 197 197 198 200 196 196 194 190 189 185 181 178 180 176 176 183 186 189 188 193 196 195 189 192 191 185 182 185 181 184 193 191 194 194 205 220 219 232 216 197 234 194 220 234 210 225 243 217 255 275 241
71 74 103 95 128 302 75 80 113 113 105 83 240 232 133 160 125 127 134 129 119 84 70 122 157 219 213 221 229 226 221 219 204 199 206 204 207 205 197 199 199 197 193 191 187 184 181 181 182 187 185 183 189 191 199 193 189 196 195 191 188 183 185 185 179 185 184 181 182 184 181 189 176 185 209 221 223 224 211 248 213 218 214 237 249 264
85 77 115 117 126 187 81 94 96 123 116 170 212 202 131 127 118 107 119 126 99 83 155 168 143 233 200 209 223 210 211 210 200 204 204 199 204 204 203 198 197 203 194 197 192 188 186 187 184 189 189 191 193 195 195 193 194 198 193 193 188 187 185 185 178 181 182 184 189 186 188 195 200 216 218 220 230 210 218 229 177 237 210 226 254 243
82 113 160 145 166 336 249 242 187 178 149 189 104 128 131 127 121 123 133 142 137 172 177 176 178 180 164 205 200 189 196 200 201 209 210 206 204 201 205 198 194 199 190 196 195 187 185 190 191 190 191 192 197 197 196 196 195 199 196 196 190 190 187 184 182 183 187 192 199 198 203 209 214 220 217 227 225 243 215 220 220 207 187 237 211 247
134 155 146 174 198 213 222 304 277 238 260 101 118 124 140 129 134 145 153 184 169 134 157 184 176 239 112 138 172 177 200 201 208 214 213 210 206 204 203 197 195 193 193 192 192 190 186 187 193 192 191 193 196 198 198 197 196 200 201 199 194 193 190 189 186 188 191 196 199 202 209 217 219 220 221 212 222 224 239 229 224 219 186 208 222 207
172 164 173 175 200 203 215 230 157 198 191 122 137 140 136 141 147 164 171 184 218 142 173 192 205 198 101 23 137 186 178 193 203 215 212 210 210 206 203 198 192 195 191 197 191 189 187 187 191 195 195 195 196 200 200 197 199 199 201 200 196 195 190 188 189 193 193 200 201 203 212 219 222 223 220 226 222 214 213 218 210 246 210 187 202 229
100 134 168 193 200 156 73 104 54 137 122 125 123 111 106 118 152 163 184 191 142 306 144 140 112 69 101 148 106 103 112 148 170 189 200 202 206 206 202 197 192 191 192 195 199 190 185 186 189 191 194 192 196 198 199 202 201 200 200 201 198 198 193 189 190 195 199 200 202 206 212 216 222 220 221 231 210 219 206 217 214 219 227 210 183 205
87 83 329 272 51 88 90 57 60 78 98 133 138 131 129 132 131 179 196 213 134 197 128 101 87 254 120 66 59 60 332 349 317 264 150 171 193 202 200 195 189 190 189 192 193 188 184 183 183 182 191 192 192 200 203 203 204 201 199 200 201 200 198 193 192 196 201 202 203 211 211 214 222 220 222 227 221 221 210 230 224 222 221 237 206 191
141 146 195 85 94 111 86 93 79 87 115 149 155 150 140 116 151 158 159 99 220 104 77 64 8 319 132 76 50 53 45 355 2 314 163 167 174 190 186 191 188 186 185 191 195 191 180 175 185 181 188 192 195 202 202 203 207 206 203 200 201 202 201 196 193 197 202 204 207 212 213 215 220 225 224 226 229 222 222 217 230 223 234 218 212 205
135 120 81 145 94 257 210 145 88 115 132 179 155 178 186 139 162 142 109 186 128 118 112 131 175 83 68 58 49 46 40 40 38 46 78 123 131 158 176 181 181 181 181 187 195 190 176 178 183 188 193 194 198 202 203 205 207 208 207 204 202 203 201 198 195 197 201 204 208 210 212 216 216 225 229 232 221 231 228 225 220 225 233 226 219 213
107 130 167 130 182 110 61 284 126 111 57 92 109 129 179 154 168 139 106 62 112 141 52 193 349 108 84 50 41 63 67 52 52 62 56 65 77 124 153 166 168 176 185 190 193 189 182 184 187 192 195 197 198 203 207 206 208 208 207 204 204 205 203 203 199 200 202 205 208 208 212 215 215 220 224 230 238 214 228 221 228 226 229 233 231 227
126 147 136 178 100 44 31 42 109 230 235 79 85 102 120 216 149 134 153 145 148 130 146 98 99 57 81 64 10 88 76 71 73 72 72 70 90 105 129 149 159 174 186 190 189 189 185 187 192 193 197 198 199 203 203 207 208 206 204 202 203 206 206 205 202 202 206 206 207 209 213 217 219 227 220 223 227 240 223 219 223 228 227 231 234 231
58 86 97 14 115 147 152 164 176 197 165 154 143 118 236 98 283 108 106 129 134 130 132 156 99 137 95 89 58 24 62 73 82 87 83 80 83 101 122 140 156 168 178 185 183 187 189 186 193 196 199 201 204 198 198 204 203 205 207 202 203 205 205 203 202 205 207 209 208 209 213 216 219 224 226 220 224 223 241 231 228 222 231 235 231 232
78 48 153 171 177 191 176 180 200 227 55 172 189 38 53 313 227 121 122 134 187 127 84 92 87 119 120 102 51 47 44 40 63 77 77 80 83 89 95 116 139 151 162 180 179 185 187 187 192 197 197 198 199 197 196 200 200 200 203 203 204 206 206 205 203 206 207 209 211 211 212 215 217 220 221 224 222 226 225 234 234 234 231 229 235 229
75 100 136 159 198 194 201 191 220 220 287 229 50 66 83 274 296 288 115 171 140 102 82 117 110 111 97 72 44 53 54 39 38 54 70 69 79 86 87 101 108 132 145 163 177 177 182 189 189 201 199 201 199 200 199 199 202 201 205 210 205 204 208 208 207 206 206 208 211 212 213 214 218 220 222 222 226 224 228 227 232 235 235 235 230 231
106 94 127 143 125 143 179 207 218 223 226 294 63 40 269 150 159 175 176 123 118 103 121 99 79 63 59 67 34 33 31 42 34 31 49 59 56 74 92 89 87 107 127 159 175 176 177 186 197 203 207 206 203 205 207 197 202 204 204 211 213 208 208 211 209 208 209 209 212 215 215 215 216 220 225 225 224 225 227 228 229 233 236 237 236 234
238 93 118 136 176 145 166 209 147 147 183 238 277 249 144 267 25 147 44 78 100 121 124 130 114 78 37 49 30 32 20 17 20 30 42 44 47 48 39 57 84 99 91 153 168 188 167 169 208 206 206 210 205 203 208 203 199 207 207 209 212 213 209 212 214 208 210 211 213 217 216 216 217 219 224 225 224 225 226 230 230 231 234 236 237 236
7 311 89 120 121 172 170 203 46 94 143 172 215 149 159 1 46 354 143 17 125 126 123 120 105 77 54 23 36 34 28 24 25 33 41 44 42 46 44 44 42 55 59 50 56 65 120 162 202 209 197 222 218 203 203 202 201 205 208 210 209 210 211 212 217 215 217 217 219 221 222 219 217 220 222 226 225 226 229 232 235 237 234 232 233 235
319 328 109 148 178 177 65 25 344 294 309 335 274 63 77 161 152 161 110 187 141 128 130 119 98 88 51 30 19 25 28 31 27 34 52 45 45 44 45 43 37 45 47 51 48 62 45 66 92 193 184 206 215 217 210 205 209 207 205 205 203 204 210 212 213 216 214 202 192 228 238 234 229 224 224 223 227 225 227 229 231 232 234 234 234 232
332 315 154 112 48 53 25 21 291 271 287 327 322 53 345 21 322 57 127 118 142 94 124 113 111 82 51 35 34 23 28 31 33 30 46 48 46 46 46 47 44 40 41 44 41 36 34 37 23 27 36 193 206 210 212 217 205 213 204 199 204 208 211 211 214 216 214 196 188 198 209 221 224 228 230 231 227 227 228 229 230 228 231 230 233 231
247 264 142 117 109 99 102 112 147 203 218 176 106 34 304 60 93 334 58 132 119 155 143 124 100 95 62 55 42 38 40 39 40 32 37 46 43 46 45 42 44 42 40 40 44 44 35 33 37 40 63 4 182 188 198 206 208 204 212 207 207 212 214 210 212 214 211 206 202 200 209 220 234 257 256 244 234 231 229 230 230 229 233 234 232 237
261 86 304 141 157 141 143 130 154 162 230 44 39 24 358 348 259 43 49 108 139 113 122 145 131 135 114 84 71 50 57 48 38 42 34 40 42 41 44 43 43 47 49 49 48 40 35 36 28 26 21 11 5 353 83 238 235 220 210 221 224 223 218 218 221 218 213 211 210 208 209 214 210 214 215 228 240 234 232 231 231 231 234 238 241 237
301 12 338 321 134 186 174 148 101 92 67 73 44 19 22 7 84 172 150 164 121 128 349 112 102 94 99 95 77 67 58 57 45 42 45 43 39 42 41 41 44 43 47 49 52 56 50 46 45 38 31 24 15 351 352 317 244 249 232 216 231 253 243 227 223 226 227 222 215 215 215 207 200 212 211 219 236 241 240 235 231 229 229 235 240 241
31 42 13 338 358 83 309 39 44 299 327 49 24 25 18 357 340 267 261 174 131 117 81 77 123 123 121 92 70 59 51 48 41 40 41 44 46 48 47 43 44 44 43 44 43 42 41 39 38 41 33 24 36 13 354 350 332 297 253 239 229 217 229 225 223 227 225 223 219 218 218 214 214 214 212 213 227 233 238 242 240 238 238 233 235 238
210 108 39 47 56 64 60 60 41 20 90 60 35 34 21 360 340 356 57 353 12 147 110 101 134 126 105 92 67 52 45 47 43 39 42 43 45 47 49 52 48 47 45 45 44 42 40 39 36 31 28 24 25 23 21 32 28 9 354 315 251 230 227 225 223 229 233 234 229 222 215 215 223 224 221 219 224 230 235 241 242 245 249 245 241 236
316 33 98 59 79 77 66 69 64 74 74 72 52 41 38 30 49 53 43 15 71 63 134 136 122 119 107 84 73 60 53 52 47 47 48 49 50 52 50 49 48 45 41 43 42 41 38 37 36 33 28 23 17 18 22 20 18 18 4 342 310 272 236 227 231 236 241 241 242 240 233 228 228 229 227 221 223 226 228 231 236 237 243 247 243 240
247 86 139 122 103 84 75 82 91 94 92 72 60 56 51 61 57 62 62 63 74 87 105 115 105 90 79 79 66 63 64 66 70 64 58 55 50 48 51 48 47 46 43 44 43 41 41 38 33 30 28 27 25 20 18 18 22 17 8 4 343 303 274 246 243 254 258 257 261 260 254 246 240 237 231 222 220 224 226 229 231 232 235 241 242 243
272 135 205 170 107 75 92 110 103 101 93 84 64 57 66 74 73 70 80 78 88 94 109 119 112 99 84 90 85 82 79 82 78 68 61 56 52 49 48 47 44 43 41 42 43 42 39 38 31 27 26 25 23 21 16 13 14 19 17 9 1 1 345 302 285 281 281 279 275 271 265 257 252 249 247 238 232 228 228 230 230 233 236 235 234 237
257 127 208 226 189 132 135 134 127 119 107 92 71 51 43 42 66 58 59 23 91 117 124 131 122 109 121 116 107 93 85 78 74 70 64 56 54 52 51 48 45 40 38 36 35 35 34 32 26 21 18 16 17 16 17 7 4 11 11 15 11 12 1 2 336 320 311 303 291 280 277 271 261 258 257 253 250 243 237 236 233 234 236 238 237 232
248 167 197 203 225 124 147 159 143 159 149 131 61 40 38 72 92 90 75 68 84 112 152 144 96 122 127 131 120 108 95 82 70 61 64 63 55 53 52 49 46 43 39 35 33 31 30 28 24 20 16 15 14 12 12 10 3 6 3 358 358 1 359 351 352 329 328 315 307 301 293 279 273 272 270 261 258 257 254 252 249 246 240 233 224 213
231 224 208 161 258 143 164 168 181 216 225 98 63 49 351 66 109 99 87 90 78 15 61 63 112 129 135 139 120 109 91 79 79 75 60 52 57 56 56 52 47 45 43 39 34 31 28 25 22 19 17 15 13 13 11 13 8 3 3 3 5 1 354 347 357 351 347 340 331 329 315 298 285 280 274 273 269 262 260 257 256 255 253 246 235 229
196 202 165 226 256 162 152 194 211 223 101 107 111 74 77 97 94 107 100 87 94 97 108 113 121 131 135 124 114 109 102 94 82 76 67 57 54 55 51 50 48 43 40 37 33 30 26 24 20 17 17 16 12 11 10 11 10 5 10 9 9 11 10 8 4 2 1 351 347 338 326 312 305 301 304 297 286 273 260 255 258 261 258 254 256 250
184 197 159 167 117 98 202 200 227 122 122 144 135 131 97 122 125 120 93 78 68 82 107 109 119 136 141 132 117 111 106 95 80 67 64 61 48 47 47 50 43 41 41 35 34 31 26 24 24 20 18 17 16 20 17 14 9 10 11 11 13 15 17 14 14 9 4 354 357 355 351 335 327 319 312 307 298 282 272 273 269 270 273 266 263 260
242 162 210 143 300 222 232 212 56 117 145 171 188 193 186 160 179 225 135 100 73 56 94 117 143 156 159 158 152 145 140 138 102 77 59 53 51 52 52 51 43 47 45 39 34 32 29 24 26 24 25 28 26 23 24 18 17 19 17 17 18 18 21 17 18 10 5 3 4 356 353 352 340 337 337 334 326 329 328 322 320 307 293 267 256 259
215 243 128 239 170 267 229 190 160 190 234 170 190 131 177 181 186 154 128 105 127 106 106 121 118 143 179 174 174 180 177 215 158 89 58 50 46 52 57 55 53 50 47 44 45 43 37 22 17 29 22 29 32 28 23 22 23 26 28 27 27 25 24 22 20 14 11 8 1 355 357 354 354 353 347 344 339 340 339 335 331 337 336 300 293 285
177 240 191 234 165 199 232 246 217 216 95 103 140 161 166 179 187 98 237 145 154 155 130 99 109 120 184 185 196 188 185 217 139 90 71 45 49 39 48 52 49 50 49 45 36 35 35 32 29 27 37 34 25 29 27 29 32 30 35 33 32 31 30 25 19 16 16 18 15 12 7 360 354 353 353 349 349 341 333 330 329 325 323 304 293 284
184 198 192 207 186 216 224 234 254 40 107 140 138 160 158 149 183 195 202 166 170 180 119 112 105 100 117 189 140 161 196 234 106 99 81 64 62 49 40 46 45 44 48 45 41 30 44 32 41 40 37 37 28 26 33 29 37 41 39 36 32 32 31 26 23 18 17 17 20 23 21 16 9 5 3 1 355 6 4 354 343 342 328 312 297 294
172 160 239 232 216 140 214 226 116 115 95 114 119 147 136 163 204 226 37 115 153 153 119 99 88 76 84 135 184 154 70 65 83 99 94 82 73 68 62 52 52 45 45 45 34 18 46 48 42 41 38 35 32 27 37 37 38 42 43 39 36 34 32 31 30 28 27 28 29 28 27 25 24 25 24 22 18 18 21 12 3 1 354 354 355 359
174 148 83 278 212 196 187 226 113 102 76 70 137 185 143 194 194 138 107 114 135 128 116 99 88 69 66 61 61 74 86 82 88 90 92 80 71 65 57 54 57 58 57 54 45 38 53 52 48 44 42 36 33 35 34 38 43 45 41 38 38 36 34 33 35 34 33 34 36 37 38 39 40 40 40 39 38 40 38 35 36 31 28 36 37 45
142 224 171 159 126 120 207 206 174 184 135 239 143 158 162 251 104 104 125 116 120 117 114 99 87 88 83 82 80 90 99 89 84 87 84 81 77 69 62 59 57 56 52 52 55 46 47 57 51 46 41 38 35 33 34 39 42 41 40 40 35 34 36 38 37 39 39 38 39 39 39 38 39 43 44 43 45 48 48 45 46 48 49 50 56 57
15 255 131 101 4 263 182 183 69 75 128 146 239 172 105 80 117 120 132 121 122 120 115 107 95 90 83 84 93 93 96 107 98 94 94 91 88 83 77 72 69 65 67 62 53 46 50 58 55 54 45 43 38 37 37 39 43 39 39 37 30 33 36 42 47 46 45 44 44 45 44 44 45 43 42 40 40 44 42 40 43 46 48 49 51 54
11 7 345 89 64 360 53 88 108 125 111 134 123 99 101 104 103 119 112 120 125 111 102 104 105 94 83 96 103 112 109 97 101 95 95 93 90 86 85 80 73 73 69 65 54 49 55 57 60 59 57 49 43 41 41 40 40 38 39 34 31 37 42 41 43 49 50 45 45 44 44 42 40 38 35 39 39 39 39 38 35 41 45 46 48 51
80 49 84 83 87 92 78 90 118 122 135 135 121 110 109 102 95 107 112 109 101 106 102 99 111 105 107 112 121 111 103 112 113 111 105 104 100 95 93 91 86 79 78 74 61 53 63 67 63 61 58 52 46 47 44 41 40 41 38 37 41 41 42 44 46 44 45 47 46 43 39 39 44 42 39 39 42 45 43 40 39 34 42 48 47 47
92 251 262 107 139 168 95 133 116 122 134 126 118 112 101 100 99 98 98 102 105 98 94 93 92 96 100 122 104 108 113 118 114 116 117 111 106 102 101 93 85 74 70 69 53 57 67 66 65 60 55 53 44 43 43 43 43 40 40 40 44 45 41 40 43 45 42 39 43 47 45 40 33 44 45 38 38 39 41 45 42 41 36 36 46 53
109 259 117 131 168 135 125 119 110 115 118 121 122 119 113 108 100 92 91 93 97 95 98 100 106 106 118 107 110 117 119 121 125 130 128 121 115 113 104 99 97 96 84 76 71 76 77 67 64 55 52 52 46 46 45 45 45 38 33 40 39 43 45 42 36 37 39 39 38 34 35 43 31 32 49 46 41 36 35 35 46 48 38 31 22 19
123 229 116 161 96 98 111 120 127 120 109 107 101 96 106 111 108 104 103 104 107 106 101 94 83 99 100 104 113 120 122 122 119 126 123 125 124 117 111 105 102 99 104 96 79 66 68 66 62 59 56 53 46 48 52 49 47 43 41 37 37 34 39 41 43 41 38 35 34 34 31 33 35 32 32 47 61 60 42 34 29 41 62 45 30 18
184 95 126 141 124 145 151 148 151 139 145 134 123 117 113 112 112 111 110 106 106 106 107 104 97 88 95 96 113 121 122 123 120 126 122 118 115 110 115 116 112 111 110 112 106 95 87 70 60 56 51 49 42 47 47 47 45 41 38 34 27 25 34 35 39 44 41 36 33 22 23 28 28 24 33 28 30 60 103 80 358 16 20 67 97 53
55 142 213 133 167 132 129 151 161 52 116 124 125 120 117 119 119 116 111 108 104 102 108 114 116 117 110 100 78 108 115 125 128 128 122 122 123 123 104 97 102 102 97 103 109 92 69 61 55 53 47 36 33 44 46 46 39 41 34 30 30 23 21 24 27 35 37 37 39 10 350 28 20 19 18 28 22 20 39 125 149 155 103 49 97 59